Weather History for KNBT - May, 2013

Change the Weather History Date:

Saturday, May 25, 2013

  Actual Average (KMRH) Record (KMRH)
Temperature  
Mean Temperature 63 °F -  
Max Temperature 71 °F 79 °F 91 °F (1975)
Min Temperature 55 °F 64 °F 49 °F (1967)
Degree Days  
Heating Degree Days 2    
Growing Degree Days 13 (Base 50)    
Moisture  
Dew Point 43 °F    
Average Humidity 51    
Maximum Humidity 72    
Minimum Humidity 32    
Precipitation  
Precipitation 0.00 in - - ()
Sea Level Pressure  
Sea Level Pressure 30.19 in    
Wind  
Wind Speed 12 mph (NW)    
Max Wind Speed 17 mph    
Max Gust Speed 24 mph    
Visibility 10 miles    
Events      
Averages and records for this station are not official NWS values.
T = Trace of Precipitation, MM = Missing Value Source: NWS Daily Summary

Daily Weather History Graph

Daily Weather History Graph

Search for Another Location

Airport or City:

Trip Planner

Search our weather history database for the weather conditions in past years. The results will help you decide how hot, cold, wet, or windy it might be!

Date:

Astronomy

May. 25, 2013 Rise Set
Actual Time 5:55 AM EDT 8:10 PM EDT
Civil Twilight 5:27 AM EDT 8:39 PM EDT
Nautical Twilight 4:51 AM EDT 9:14 PM EDT
Astronomical Twilight 4:13 AM EDT 9:52 PM EDT
Moon 8:56 PM EDT (5/25) 6:19 AM EDT (5/25)
Length of Visible Light 15h 12m
Length of Day
14h 14m
Full, 100% of the Moon is Illuminated
May 25
Full
May 31
Last Quarter
Jun 8
New
Jun 16
First Quarter
Jun 23
Full

Hourly Weather History & Observations

Time (EDT) Temp. Dew Point Humidity Pressure Visibility Wind Dir Wind Speed Gust Speed Precip Events Conditions
12:56 AM 61.0 °F 48.9 °F 64% 30.15 in 10.0 mi North 12.7 mph - N/A   Partly Cloudy
1:56 AM 60.1 °F 46.0 °F 60% 30.15 in 10.0 mi North 10.4 mph - N/A   Clear
2:56 AM 59.0 °F 46.9 °F 64% 30.15 in 10.0 mi North 10.4 mph - N/A   Clear
3:56 AM 57.0 °F 45.0 °F 64% 30.16 in 10.0 mi North 10.4 mph - N/A   Clear
4:56 AM 57.0 °F 43.0 °F 59% 30.18 in 10.0 mi North 15.0 mph - N/A   Clear
5:56 AM 55.0 °F 43.0 °F 64% 30.20 in 10.0 mi North 15.0 mph - N/A   Clear
6:56 AM 55.0 °F 43.0 °F 64% 30.23 in 10.0 mi North 15.0 mph - N/A   Clear
7:56 AM 55.9 °F 42.1 °F 60% 30.23 in 10.0 mi North 12.7 mph 21.9 mph N/A   Clear
8:56 AM 57.0 °F 39.9 °F 53% 30.24 in 10.0 mi NNW 15.0 mph 24.2 mph N/A   Clear
9:56 AM 57.9 °F 37.0 °F 46% 30.24 in 10.0 mi NW 16.1 mph 21.9 mph N/A   Clear
10:56 AM 60.1 °F 37.9 °F 44% 30.25 in 10.0 mi West 15.0 mph 20.7 mph N/A   Clear
11:56 AM 62.1 °F 39.0 °F 43% 30.24 in 10.0 mi West 16.1 mph 21.9 mph N/A   Clear
12:56 PM 64.0 °F 41.0 °F 43% 30.23 in 10.0 mi West 13.8 mph 23.0 mph N/A   Clear
1:56 PM 66.9 °F 41.0 °F 39% 30.19 in 10.0 mi West 13.8 mph 21.9 mph N/A   Clear
2:56 PM 69.1 °F 41.0 °F 36% 30.18 in 10.0 mi West 13.8 mph 21.9 mph N/A   Clear
3:56 PM 70.0 °F 39.0 °F 32% 30.16 in 10.0 mi West 12.7 mph - N/A   Clear
4:56 PM 71.1 °F 41.0 °F 34% 30.15 in 10.0 mi WNW 17.3 mph 20.7 mph N/A   Clear
5:56 PM 70.0 °F 42.1 °F 36% 30.15 in 10.0 mi NW 12.7 mph - N/A   Clear
6:56 PM 70.0 °F 43.0 °F 38% 30.17 in 10.0 mi NW 8.1 mph - N/A   Clear
7:56 PM 66.9 °F 43.0 °F 42% 30.18 in 10.0 mi WNW 6.9 mph - N/A   Clear
8:56 PM 66.0 °F 44.1 °F 45% 30.18 in 10.0 mi WNW 3.5 mph - N/A   Clear
9:56 PM 64.0 °F 48.0 °F 56% 30.19 in 10.0 mi SSW 4.6 mph - N/A   Clear
10:56 PM 57.9 °F 48.9 °F 72% 30.20 in 10.0 mi South 4.6 mph - N/A   Clear
11:56 PM 57.9 °F 48.0 °F 70% 30.20 in 10.0 mi South 5.8 mph - N/A   Clear